Winston-Salem, NC

10:02 PM EST on February 26, 2017 (GMT -0500)
Smith Reynolds

Weather History for KINT - February, 2014

Change the Weather History Date:

Thursday, February 13, 2014

  Actual Average Record
Temperature  
Mean Temperature 32 °F -  
Max Temperature 39 °F 50 °F 67 °F (1984)
Min Temperature 24 °F 32 °F 9 °F (1981)
Degree Days  
Heating Degree Days 34    
Moisture  
Dew Point 27 °F    
Average Humidity 84    
Maximum Humidity 93    
Minimum Humidity 57    
Precipitation  
Precipitation 0.37 in - - ()
Sea Level Pressure  
Sea Level Pressure 29.61 in    
Wind  
Wind Speed 12 mph (NNW)    
Max Wind Speed 18 mph    
Max Gust Speed 29 mph    
Visibility 4 miles    
Events Fog , Rain , Snow    
Averages and records for this station are not official NWS values.
T = Trace of Precipitation, MM = Missing Value Source: NWS Daily Summary

Daily Weather History Graph

Daily Weather History Graph

Search for Another Location

Airport or City:

Trip Planner

Search our weather history database for the weather conditions in past years. The results will help you decide how hot, cold, wet, or windy it might be!

Date:

Astronomy

Feb. 13, 2014 Rise Set
Actual Time 7:10 AM EST 6:00 PM EST
Civil Twilight 6:44 AM EST 6:26 PM EST
Nautical Twilight 6:13 AM EST 6:56 PM EST
Astronomical Twilight 5:44 AM EST 7:26 PM EST
Moon 5:07 PM EST (2/13) 6:02 AM EST (2/13)
Length of Visible Light 11h 42m
Length of Day
10h 49m
Waxing Gibbous, 98% of the Moon is Illuminated
Feb 13
Waxing Gibbous
Feb 14
Full
Feb 22
Last Quarter
Mar 1
New
Mar 8
First Quarter

Hourly Weather History & Observations

Time (EST) Temp. Windchill Dew Point Humidity Pressure Visibility Wind Dir Wind Speed Gust Speed Precip Events Conditions
12:54 AM 24.1 °F 12.5 °F 19.9 °F 84% 29.83 in 1.2 mi NNE 12.7 mph - 0.08 in Snow Light Snow
1:32 AM 24.8 °F 11.9 °F 21.2 °F 86% 29.75 in 2.0 mi NNE 16.1 mph 24.2 mph 0.02 in Snow Light Snow
1:36 AM 24.8 °F 12.9 °F 21.2 °F 86% 29.75 in 1.8 mi NNE 13.8 mph 24.2 mph 0.02 in Snow Light Snow
1:54 AM 25.0 °F 12.2 °F 21.9 °F 88% 29.77 in 1.8 mi NNE 16.1 mph 26.5 mph 0.03 in Snow Light Snow
2:04 AM 26.6 °F 15.2 °F 21.2 °F 80% 29.74 in 2.5 mi NNE 13.8 mph 28.8 mph 0.00 in   Overcast
2:19 AM 26.6 °F 16.2 °F 23.0 °F 86% 29.74 in 2.5 mi NE 11.5 mph 19.6 mph 0.00 in Rain Light Freezing Rain
2:23 AM 26.6 °F 20.0 °F 23.0 °F 86% 29.73 in 2.5 mi Variable 5.8 mph 19.6 mph 0.00 in Snow Light Snow
2:40 AM 26.6 °F 14.7 °F 23.0 °F 86% 29.72 in 3.0 mi NNE 15.0 mph 24.2 mph 0.00 in   Overcast
2:54 AM 27.0 °F 17.3 °F 24.1 °F 89% 29.74 in 4.0 mi NE 10.4 mph 20.7 mph 0.00 in   Overcast
3:03 AM 26.6 °F 14.3 °F 24.8 °F 93% 29.71 in 4.0 mi NNE 16.1 mph 23.0 mph 0.01 in Rain Light Freezing Rain
3:45 AM 28.4 °F 17.5 °F 26.6 °F 93% 29.69 in 3.0 mi NNE 13.8 mph 24.2 mph 0.03 in Rain Light Freezing Rain
3:54 AM 28.9 °F 19.2 °F 26.1 °F 89% 29.72 in 4.0 mi NNE 11.5 mph 21.9 mph 0.04 in Rain Light Freezing Rain
4:04 AM 28.4 °F 15.8 °F 26.6 °F 93% 29.66 in 4.0 mi NNE 18.4 mph 26.5 mph 0.01 in Rain Light Freezing Rain
4:15 AM 28.4 °F 16.6 °F 26.6 °F 93% 29.64 in 5.0 mi NNE 16.1 mph 26.5 mph 0.02 in Rain Light Freezing Rain
4:54 AM 30.0 °F 19.5 °F 27.0 °F 88% 29.67 in 10.0 mi NE 13.8 mph 24.2 mph 0.03 in Rain Light Freezing Rain
5:19 AM 30.2 °F 19.8 °F 26.6 °F 86% 29.64 in 10.0 mi NNE 13.8 mph 28.8 mph 0.00 in   Overcast
5:54 AM 30.0 °F 18.7 °F 27.0 °F 88% 29.66 in 6.0 mi NNE 16.1 mph 21.9 mph 0.00 in   Overcast
6:54 AM 30.0 °F 20.5 °F 28.0 °F 92% 29.63 in 4.0 mi NNE 11.5 mph 25.3 mph N/A   Overcast
7:25 AM 30.2 °F 18.9 °F 26.6 °F 86% 29.58 in 2.0 mi NNE 16.1 mph 23.0 mph N/A   Overcast
7:54 AM 30.0 °F 20.0 °F 27.0 °F 88% 29.60 in 2.0 mi NE 12.7 mph - N/A   Overcast
8:32 AM 30.2 °F 19.8 °F 26.6 °F 86% 29.56 in 2.5 mi NNE 13.8 mph 21.9 mph 0.00 in Rain Light Freezing Rain
8:47 AM 30.2 °F 20.8 °F 26.6 °F 86% 29.55 in 2.0 mi NNE 11.5 mph 19.6 mph 0.01 in Snow Light Snow
8:54 AM 30.0 °F 19.5 °F 27.0 °F 88% 29.58 in 2.0 mi NNE 13.8 mph 21.9 mph 0.01 in Snow Light Snow
9:33 AM 30.2 °F 22.6 °F 28.4 °F 93% 29.57 in 1.5 mi North 8.1 mph - 0.02 in Snow Light Snow
9:54 AM 30.0 °F 23.2 °F 28.0 °F 92% 29.58 in 1.0 mi North 6.9 mph - 0.05 in Snow Light Snow
10:54 AM 30.9 °F 24.3 °F 28.9 °F 92% 29.57 in 0.8 mi NNW 6.9 mph - 0.01 in Snow Light Snow
11:54 AM 33.1 °F 27.7 °F 30.0 °F 89% 29.56 in 0.5 mi NW 5.8 mph - 0.05 in Fog , Snow Snow
12:30 PM 32.0 °F 24.8 °F 30.2 °F 93% 29.52 in 0.8 mi NW 8.1 mph - 0.02 in Snow Light Snow
12:50 PM 33.8 °F 27.0 °F 30.2 °F 87% 29.51 in 1.0 mi NW 8.1 mph - 0.02 in Snow Light Snow
12:51 PM 33.1 °F 26.1 °F 30.0 °F 89% 29.53 in 1.0 mi NW 8.1 mph - 0.02 in Snow Light Snow
1:29 PM 33.8 °F 24.8 °F 30.2 °F 87% 29.49 in 0.8 mi NW 12.7 mph 18.4 mph 0.01 in Snow Light Snow
1:39 PM 33.8 °F 25.8 °F 30.2 °F 87% 29.49 in 1.0 mi NW 10.4 mph - 0.01 in Snow Light Snow
1:54 PM 34.0 °F 25.5 °F 30.9 °F 89% 29.50 in 1.5 mi NW 11.5 mph - 0.01 in Snow Light Snow
2:27 PM 33.8 °F 24.8 °F 30.2 °F 87% 29.49 in 0.5 mi NW 12.7 mph 19.6 mph 0.02 in Fog , Snow Snow
2:34 PM 33.8 °F 25.3 °F 30.2 °F 87% 29.49 in 0.2 mi NW 11.5 mph 23.0 mph 0.03 in Fog , Snow Heavy Snow
2:43 PM 33.8 °F 25.3 °F 30.2 °F 87% 29.49 in 0.8 mi NW 11.5 mph 20.7 mph 0.04 in Snow Light Snow
2:50 PM 33.8 °F 26.4 °F 30.2 °F 87% 29.49 in 1.0 mi NW 9.2 mph 20.7 mph 0.04 in Snow Light Snow
2:54 PM 34.0 °F 26.6 °F 30.9 °F 89% 29.50 in 1.0 mi NW 9.2 mph 19.6 mph 0.04 in Snow Light Snow
3:04 PM 33.8 °F 26.4 °F 30.2 °F 87% 29.48 in 3.0 mi NW 9.2 mph - 0.00 in Snow Light Snow
3:26 PM 35.6 °F 29.2 °F 30.2 °F 81% 29.48 in 10.0 mi NW 8.1 mph - 0.00 in   Overcast
3:54 PM 37.0 °F 32.4 °F 30.9 °F 79% 29.50 in 10.0 mi WNW 5.8 mph - 0.00 in   Mostly Cloudy
4:54 PM 39.0 °F 32.8 °F 30.9 °F 73% 29.52 in 10.0 mi NW 9.2 mph 16.1 mph N/A   Mostly Cloudy
5:54 PM 39.9 °F 32.9 °F 30.9 °F 70% 29.56 in 10.0 mi WNW 11.5 mph 19.6 mph N/A   Partly Cloudy
6:54 PM 39.0 °F 31.8 °F 28.9 °F 67% 29.59 in 10.0 mi West 11.5 mph - N/A   Clear
7:54 PM 39.0 °F 32.3 °F 28.0 °F 65% 29.62 in 10.0 mi WNW 10.4 mph - N/A   Clear
8:54 PM 37.9 °F 31.5 °F 26.1 °F 62% 29.63 in 10.0 mi WNW 9.2 mph 17.3 mph N/A   Clear
9:54 PM 37.0 °F 31.6 °F 24.1 °F 59% 29.65 in 10.0 mi West 6.9 mph - N/A   Clear
10:54 PM 35.1 °F 31.0 °F 23.0 °F 61% 29.68 in 10.0 mi West 4.6 mph - N/A   Clear
11:54 PM 35.1 °F 29.3 °F 21.0 °F 57% 29.68 in 10.0 mi West 6.9 mph - N/A   Clear